Total_Precipitation_Accumulation
2.75 2.94 2.91 2.73 2.74 2.88 3.08 3.29 3.34 3.13 3.03 2.90 2.56 2.43 2.44 2.40 2.48 2.35 2.46 2.37 1.93 1.69 1.63 1.62 1.60 1.59 1.66 1.81 2.05 2.36 2.58 2.68 2.83 3.06 3.40 3.78 4.14 4.49
2.99 3.06 2.93 2.68 2.82 2.87 2.99 3.28 3.54 3.60 3.31 2.88 2.64 2.52 2.53 2.27 2.28 2.09 2.15 2.05 1.74 1.58 1.48 1.45 1.39 1.33 1.33 1.39 1.52 1.79 1.99 2.17 2.35 2.46 2.63 2.84 3.12 3.39
2.92 2.83 2.75 2.78 2.94 2.88 3.03 3.19 3.42 3.66 3.37 3.00 2.83 2.77 2.78 2.60 2.43 2.14 1.89 1.78 1.65 1.69 1.53 1.38 1.30 1.26 1.30 1.37 1.43 1.54 1.71 1.91 2.08 2.22 2.39 2.57 2.69 2.80
2.83 2.80 2.69 2.81 2.92 2.90 2.99 2.98 3.07 3.38 3.27 3.03 2.96 2.98 2.87 2.68 2.55 2.37 2.00 1.82 1.85 1.90 1.70 1.52 1.40 1.36 1.32 1.31 1.40 1.48 1.59 1.73 1.87 1.96 2.01 2.06 2.22 2.46
2.79 2.71 2.59 2.69 2.64 2.71 2.75 2.75 2.75 2.88 3.08 2.97 2.86 2.93 2.84 2.69 2.60 2.43 2.31 2.40 2.19 2.01 1.84 1.67 1.52 1.45 1.41 1.34 1.35 1.45 1.55 1.60 1.61 1.74 1.87 1.96 2.01 2.08
2.46 2.40 2.42 2.55 2.66 2.65 2.56 2.54 2.62 2.76 2.87 2.91 2.88 2.95 2.97 2.98 2.86 2.68 2.66 2.59 2.40 1.94 1.87 1.66 1.52 1.40 1.32 1.24 1.25 1.41 1.56 1.63 1.66 1.63 1.69 1.79 1.89 1.98
2.24 2.08 2.12 2.45 2.61 2.58 2.37 2.47 2.55 2.61 2.70 2.82 2.87 2.98 3.05 3.26 3.07 2.76 2.62 2.65 2.49 2.24 2.07 1.84 1.68 1.54 1.48 1.43 1.36 1.36 1.41 1.52 1.62 1.74 1.86 1.94 1.99 2.04
2.01 1.95 1.94 2.02 2.06 2.10 2.10 2.12 2.19 2.26 2.48 2.76 2.84 2.85 2.82 2.92 3.02 2.92 2.81 2.75 2.68 2.55 2.57 2.45 2.10 2.01 1.88 1.72 1.60 1.35 1.20 1.26 1.42 1.54 1.79 2.04 2.27 2.34
1.98 2.04 1.76 1.58 1.72 1.75 1.89 1.88 1.83 1.92 2.07 2.33 2.52 2.53 2.64 2.65 2.91 2.94 3.00 3.03 2.96 2.88 2.86 2.91 2.55 2.23 1.95 1.84 1.75 1.40 1.24 1.19 1.25 1.36 1.48 1.70 2.00 2.31
1.86 1.88 1.83 1.70 1.66 1.78 1.86 1.80 1.65 1.62 1.62 1.60 1.82 2.12 2.38 2.63 2.68 2.75 2.87 2.94 2.94 2.77 2.69 2.75 2.58 2.42 2.09 1.80 1.66 1.44 1.26 1.13 1.11 1.17 1.20 1.28 1.44 1.68
1.81 1.76 1.72 1.64 1.70 1.58 1.53 1.54 1.55 1.54 1.40 1.39 1.48 1.70 1.91 1.98 2.20 2.46 2.68 2.67 2.62 2.43 2.24 2.32 2.36 2.38 2.36 2.10 1.70 1.55 1.33 1.14 1.09 1.11 1.10 1.11 1.18 1.29
1.80 1.75 1.63 1.48 1.47 1.36 1.32 1.46 1.47 1.47 1.49 1.42 1.32 1.36 1.44 1.61 1.72 1.80 2.12 2.34 2.26 2.21 1.97 1.87 1.85 1.99 2.16 1.95 1.68 1.59 1.52 1.37 1.20 1.16 1.14 1.11 1.16 1.10
1.81 1.73 1.66 1.54 1.34 1.30 1.25 1.29 1.36 1.36 1.44 1.48 1.43 1.39 1.49 1.61 1.58 1.56 1.73 1.96 2.04 1.87 1.71 1.80 1.70 1.65 1.67 1.61 1.50 1.38 1.41 1.52 1.48 1.35 1.28 1.27 1.27 1.26
1.93 1.89 1.80 1.58 1.33 1.26 1.18 1.15 1.14 1.07 1.09 1.27 1.33 1.30 1.35 1.47 1.55 1.54 1.61 1.68 1.77 1.69 1.69 1.78 1.80 1.76 1.67 1.53 1.39 1.24 1.23 1.34 1.49 1.68 1.78 1.79 1.64 1.58
1.93 1.99 1.73 1.48 1.32 1.16 1.15 1.15 1.04 0.94 1.03 1.13 1.15 1.16 1.19 1.32 1.54 1.71 1.77 1.80 1.76 1.59 1.45 1.49 1.60 1.76 1.79 1.57 1.34 1.23 1.24 1.32 1.44 1.64 1.78 1.88 1.93 1.94
1.75 1.83 1.69 1.52 1.36 1.21 1.14 1.10 1.03 1.08 1.17 1.18 1.21 1.27 1.30 1.38 1.49 1.58 1.69 1.78 1.77 1.57 1.44 1.42 1.51 1.71 1.74 1.55 1.42 1.33 1.33 1.39 1.41 1.62 1.88 1.98 1.99 2.02
1.82 1.81 1.77 1.62 1.47 1.35 1.30 1.33 1.38 1.38 1.32 1.32 1.37 1.39 1.38 1.38 1.44 1.51 1.59 1.67 1.65 1.47 1.36 1.43 1.53 1.71 1.72 1.67 1.57 1.37 1.35 1.33 1.33 1.53 1.83 1.95 1.98 2.00
1.72 1.66 1.75 1.72 1.62 1.53 1.48 1.48 1.48 1.44 1.40 1.42 1.40 1.39 1.38 1.37 1.41 1.46 1.48 1.49 1.49 1.43 1.36 1.35 1.52 1.77 1.87 1.67 1.35 1.27 1.26 1.21 1.27 1.49 1.66 1.72 1.63 1.62
1.49 1.50 1.60 1.64 1.59 1.55 1.49 1.46 1.41 1.46 1.50 1.44 1.39 1.41 1.42 1.41 1.44 1.47 1.47 1.49 1.47 1.44 1.43 1.49 1.56 1.65 1.69 1.50 1.25 1.06 1.17 1.24 1.33 1.42 1.53 1.53 1.43 1.42
1.29 1.34 1.40 1.47 1.50 1.52 1.52 1.52 1.47 1.48 1.50 1.49 1.45 1.46 1.47 1.43 1.43 1.43 1.39 1.41 1.51 1.54 1.56 1.50 1.47 1.46 1.47 1.49 1.43 1.25 1.13 1.33 1.46 1.44 1.40 1.46 1.42 1.38
1.16 1.20 1.24 1.28 1.33 1.39 1.41 1.46 1.47 1.46 1.46 1.48 1.43 1.42 1.47 1.48 1.47 1.46 1.46 1.49 1.51 1.55 1.53 1.39 1.35 1.52 1.68 1.79 1.64 1.42 1.40 1.41 1.50 1.53 1.53 1.58 1.54 1.48
1.16 1.20 1.17 1.17 1.21 1.29 1.35 1.43 1.46 1.47 1.50 1.49 1.48 1.47 1.48 1.50 1.49 1.49 1.52 1.55 1.56 1.55 1.54 1.57 1.67 1.77 1.82 1.78 1.64 1.60 1.69 1.69 1.68 1.65 1.55 1.52 1.45 1.34
1.12 1.11 1.09 1.10 1.14 1.21 1.29 1.35 1.41 1.49 1.48 1.48 1.53 1.51 1.46 1.46 1.45 1.49 1.49 1.50 1.55 1.63 1.74 1.76 1.73 1.70 1.69 1.75 1.75 1.70 1.67 1.76 1.83 1.79 1.61 1.48 1.34 1.19